Weather History for KSFM - April, 2014

Change the Weather History Date:

Monday, April 7, 2014

  Actual Average Record
Temperature  
Mean Temperature 40 °F -  
Max Temperature 57 °F 48 °F 71 °F (1997)
Min Temperature 24 °F 27 °F 12 °F (2003)
Degree Days  
Heating Degree Days 24    
Moisture  
Dew Point 23 °F    
Average Humidity 53    
Maximum Humidity 93    
Minimum Humidity 25    
Precipitation  
Precipitation 0.04 in - - ()
Sea Level Pressure  
Sea Level Pressure 30.15 in    
Wind  
Wind Speed 5 mph (SSE)    
Max Wind Speed 12 mph    
Max Gust Speed 18 mph    
Visibility 10 miles    
Events      
Averages and records for this station are not official NWS values.
T = Trace of Precipitation, MM = Missing Value Source: NWS Daily Summary

Daily Weather History Graph

Daily Weather History Graph

Search for Another Location

Airport or City:

Trip Planner

Search our weather history database for the weather conditions in past years. The results will help you decide how hot, cold, wet, or windy it might be!

Date:

Astronomy

Apr. 07, 2014 Rise Set
Actual Time 6:14 AM EDT 7:16 PM EDT
Civil Twilight 5:44 AM EDT 7:45 PM EDT
Nautical Twilight 5:10 AM EDT 8:20 PM EDT
Astronomical Twilight 4:33 AM EDT 8:57 PM EDT
Moon 12:02 PM EDT (4/7) 1:56 AM EDT (4/7)
Length of Visible Light 14h 00m
Length of Day
13h 02m
First Quarter, 53% of the Moon is Illuminated
Apr 7
First Quarter
Apr 15
Full
Apr 22
Last Quarter
Apr 29
New
May 6
First Quarter

Hourly Weather History & Observations

Time (EDT) Temp. Windchill Dew Point Humidity Pressure Visibility Wind Dir Wind Speed Gust Speed Precip Events Conditions
12:15 AM 28.4 °F 20.4 °F 21.2 °F 74% 30.14 in 10.0 mi WSW 8.1 mph - N/A   Clear
12:35 AM 28.4 °F 22.2 °F 21.2 °F 74% 30.14 in 10.0 mi WSW 5.8 mph - N/A   Clear
12:55 AM 26.6 °F 20.0 °F 21.2 °F 80% 30.15 in 10.0 mi WSW 5.8 mph - N/A   Clear
1:15 AM 28.4 °F 22.2 °F 19.4 °F 69% 30.15 in 10.0 mi West 5.8 mph - N/A   Clear
1:35 AM 26.6 °F 20.0 °F 19.4 °F 74% 30.16 in 10.0 mi West 5.8 mph - N/A   Clear
1:55 AM 26.6 °F 21.2 °F 19.4 °F 74% 30.15 in 10.0 mi West 4.6 mph - N/A   Clear
2:15 AM 28.4 °F 24.6 °F 19.4 °F 69% 30.16 in 10.0 mi West 3.5 mph - N/A   Clear
2:35 AM 28.4 °F 24.6 °F 23.0 °F 80% 30.15 in 10.0 mi West 3.5 mph - N/A   Clear
2:55 AM 28.4 °F 24.6 °F 23.0 °F 80% 30.15 in 10.0 mi SW 3.5 mph - N/A   Clear
3:15 AM 28.4 °F - 19.4 °F 69% 30.15 in 10.0 mi Calm Calm - N/A   Clear
3:35 AM 28.4 °F 21.2 °F 19.4 °F 69% 30.15 in 10.0 mi WSW 6.9 mph - N/A   Clear
3:55 AM 28.4 °F - 21.2 °F 74% 30.16 in 10.0 mi Calm Calm - N/A   Clear
4:15 AM 26.6 °F - 23.0 °F 86% 30.18 in 10.0 mi Calm Calm - N/A   Clear
4:35 AM 26.6 °F 22.6 °F 19.4 °F 74% 30.18 in 10.0 mi West 3.5 mph - N/A   Clear
4:55 AM 26.6 °F 22.6 °F 17.6 °F 69% 30.18 in 10.0 mi West 3.5 mph - N/A   Clear
5:15 AM 26.6 °F - 21.2 °F 80% 30.19 in 10.0 mi Calm Calm - N/A   Clear
5:35 AM 26.6 °F - 24.8 °F 93% 30.19 in 10.0 mi Calm Calm - N/A   Clear
5:55 AM 26.6 °F - 19.4 °F 74% 30.19 in 10.0 mi Calm Calm - N/A   Clear
6:15 AM 26.6 °F - 21.2 °F 80% 30.19 in 10.0 mi Calm Calm - N/A   Clear
6:35 AM 24.8 °F - 19.4 °F 80% 30.21 in 10.0 mi Calm Calm - N/A   Clear
6:55 AM 26.6 °F - 23.0 °F 86% 30.21 in 10.0 mi Calm Calm - N/A   Clear
7:15 AM 30.2 °F - 21.2 °F 69% 30.20 in 10.0 mi Calm Calm - N/A   Clear
7:35 AM 35.6 °F - 26.6 °F 70% 30.21 in 10.0 mi Calm Calm - N/A   Clear
7:55 AM 39.2 °F - 24.8 °F 56% 30.21 in 10.0 mi Calm Calm - N/A   Clear
8:15 AM 41.0 °F - 28.4 °F 61% 30.21 in 10.0 mi Calm Calm - N/A   Clear
8:35 AM 44.6 °F 43.1 °F 24.8 °F 46% 30.22 in 10.0 mi NNE 3.5 mph - N/A   Clear
8:55 AM 46.4 °F - 21.2 °F 37% 30.22 in 10.0 mi Calm Calm - N/A   Clear
9:15 AM 48.2 °F - 23.0 °F 37% 30.22 in 10.0 mi Calm Calm - N/A   Clear
9:35 AM 51.8 °F - 21.2 °F 30% 30.22 in 10.0 mi East 3.5 mph - N/A   Clear
9:55 AM 53.6 °F - 21.2 °F 28% 30.22 in 10.0 mi SE 5.8 mph - N/A   Clear
10:15 AM 55.4 °F - 21.2 °F 26% 30.22 in 10.0 mi SE 6.9 mph - N/A   Clear
10:35 AM 55.4 °F - 21.2 °F 26% 30.22 in 10.0 mi SSE 9.2 mph - N/A   Clear
10:55 AM 55.4 °F - 21.2 °F 26% 30.22 in 10.0 mi ESE 9.2 mph - N/A   Clear
11:15 AM 55.4 °F - 21.2 °F 26% 30.22 in 10.0 mi SE 8.1 mph 17.3 mph N/A   Clear
11:35 AM 55.4 °F - 19.4 °F 25% 30.22 in 10.0 mi ESE 9.2 mph - N/A   Clear
11:55 AM 55.4 °F - 21.2 °F 26% 30.21 in 10.0 mi ESE 9.2 mph - N/A   Clear
12:15 PM 55.4 °F - 21.2 °F 26% 30.21 in 10.0 mi SE 9.2 mph - N/A   Clear
12:35 PM 57.2 °F - 21.2 °F 25% 30.20 in 10.0 mi SSE 9.2 mph - N/A   Clear
12:55 PM 55.4 °F - 21.2 °F 26% 30.19 in 10.0 mi South 10.4 mph 17.3 mph N/A   Clear
1:15 PM 55.4 °F - 21.2 °F 26% 30.19 in 10.0 mi SSE 10.4 mph 16.1 mph N/A   Clear
1:35 PM 57.2 °F - 21.2 °F 25% 30.19 in 10.0 mi SSW 11.5 mph 17.3 mph N/A   Clear
1:55 PM 55.4 °F - 21.2 °F 26% 30.18 in 10.0 mi South 10.4 mph 18.4 mph N/A   Clear
2:15 PM 55.4 °F - 21.2 °F 26% 30.17 in 10.0 mi South 9.2 mph - N/A   Clear
2:35 PM 55.4 °F - 21.2 °F 26% 30.16 in 10.0 mi South 8.1 mph - N/A   Clear
2:55 PM 55.4 °F - 21.2 °F 26% 30.15 in 10.0 mi South 8.1 mph - N/A   Clear
3:15 PM 53.6 °F - 21.2 °F 28% 30.13 in 10.0 mi SE 6.9 mph - N/A   Clear
3:35 PM 53.6 °F - 21.2 °F 28% 30.12 in 10.0 mi SE 6.9 mph - N/A   Clear
4:15 PM 50.0 °F - 24.8 °F 37% 30.12 in 10.0 mi East 5.8 mph - N/A   Clear
4:35 PM 48.2 °F - 24.8 °F 40% 30.13 in 10.0 mi SE 4.6 mph - N/A   Clear
4:55 PM 48.2 °F - 26.6 °F 43% 30.12 in 10.0 mi SE 5.8 mph - N/A   Clear
5:15 PM 46.4 °F 44.3 °F 28.4 °F 50% 30.12 in 10.0 mi SE 4.6 mph - N/A   Clear
5:35 PM 46.4 °F 44.3 °F 30.2 °F 53% 30.11 in 10.0 mi ESE 4.6 mph - N/A   Clear
5:55 PM 46.4 °F 44.3 °F 30.2 °F 53% 30.10 in 10.0 mi ESE 4.6 mph - N/A   Clear
6:15 PM 46.4 °F 44.3 °F 30.2 °F 53% 30.11 in 10.0 mi SE 4.6 mph - N/A   Partly Cloudy
6:35 PM 44.6 °F 43.1 °F 30.2 °F 57% 30.10 in 10.0 mi SE 3.5 mph - N/A   Clear
6:55 PM 44.6 °F - 30.2 °F 57% 30.11 in 10.0 mi Calm Calm - N/A   Mostly Cloudy
7:15 PM 44.6 °F - 30.2 °F 57% 30.09 in 10.0 mi Calm Calm - N/A   Overcast
7:35 PM 44.6 °F - 30.2 °F 57% 30.08 in 10.0 mi Calm Calm - N/A   Mostly Cloudy
7:55 PM 44.6 °F - 28.4 °F 53% 30.09 in 10.0 mi Calm Calm - N/A   Mostly Cloudy
8:15 PM 44.6 °F 42.2 °F 26.6 °F 49% 30.08 in 10.0 mi ESE 4.6 mph - N/A   Scattered Clouds
8:35 PM 44.6 °F 43.1 °F 23.0 °F 43% 30.07 in 10.0 mi SSE 3.5 mph - N/A   Partly Cloudy
8:55 PM 44.6 °F 41.4 °F 21.2 °F 39% 30.06 in 10.0 mi SSE 5.8 mph - N/A   Mostly Cloudy
9:15 PM 44.6 °F 41.4 °F 21.2 °F 39% 30.05 in 10.0 mi SE 5.8 mph - N/A   Overcast
9:35 PM 44.6 °F 40.7 °F 19.4 °F 37% 30.05 in 10.0 mi SSE 6.9 mph - N/A   Overcast
9:55 PM 44.6 °F 43.1 °F 21.2 °F 39% 30.05 in 10.0 mi SSE 3.5 mph - N/A   Overcast
10:15 PM 44.6 °F 40.7 °F 21.2 °F 39% 30.05 in 10.0 mi SSE 6.9 mph - N/A   Overcast
10:35 PM 42.8 °F 40.1 °F 28.4 °F 57% 30.03 in 10.0 mi SSE 4.6 mph - N/A   Overcast
10:55 PM 41.0 °F - 28.4 °F 61% 30.02 in 8.0 mi Calm Calm - N/A   Mostly Cloudy
11:15 PM 39.2 °F - 33.8 °F 81% 30.02 in 7.0 mi Calm Calm - 0.01 in   Overcast
11:35 PM 37.4 °F 33.8 °F 33.8 °F 87% 30.00 in 9.0 mi NE 4.6 mph - 0.03 in   Overcast
11:55 PM 39.2 °F 34.2 °F 33.8 °F 81% 29.97 in 10.0 mi NE 6.9 mph - 0.04 in   Mostly Cloudy